Alma, MI

5:22 AM EST on November 17, 2019 (GMT -0500)
Gratiot Community

Weather History for KAMN - June, 2019

Change the Weather History Date:

Saturday, June 1, 2019

  Actual Average Record
Temperature  
Mean Temperature 64 °F -  
Max Temperature 68 °F 75 °F 93 °F (1988)
Min Temperature 60 °F 51 °F 34 °F (1966)
Growing Degree Days 14 (Base 50)    
Moisture  
Dew Point 61 °F    
Average Humidity 88    
Maximum Humidity 94    
Minimum Humidity 75    
Precipitation  
Precipitation 0.00 in - - ()
Sea Level Pressure  
Sea Level Pressure 29.78 in    
Wind  
Wind Speed 5 mph (SW)    
Max Wind Speed 32 mph    
Max Gust Speed 39 mph    
Visibility 8 miles    
Events Fog , Rain    
Averages and records for this station are not official NWS values.
T = Trace of Precipitation, MM = Missing Value Source: NWS Daily Summary

Daily Weather History Graph

Daily Weather History Graph

Search for Another Location

Airport or City:

Astronomy

Jun. 01, 2019 Rise Set
Actual Time 6:01 AM EDT 9:12 PM EDT
Civil Twilight 5:26 AM EDT 9:46 PM EDT
Nautical Twilight 4:42 AM EDT 10:31 PM EDT
Astronomical Twilight 3:48 AM EDT 11:26 PM EDT
Moon 5:11 AM EDT (6/1) 7:20 PM EDT (6/1)
Length of Visible Light 16h 20m
Length of Day
15h 10m
Waning Crescent, 4% of the Moon is Illuminated
Jun 1
Waning Crescent
Jun 3
New
Jun 10
First Quarter
Jun 17
Full
Jun 25
Last Quarter

Hourly Weather History & Observations

Time (EDT) Temp. Dew Point Humidity Pressure Visibility Wind Dir Wind Speed Gust Speed Precip Events Conditions
12:15 AM 67.1 °F 61.0 °F 81% 29.82 in 7.0 mi Calm Calm - N/A Rain Heavy Rain
12:16 AM 67.1 °F 61.2 °F 81% 29.82 in 7.0 mi Calm Calm - N/A Rain Heavy Rain
12:36 AM 64.9 °F 61.7 °F 89% 29.81 in 3.0 mi SW 3.5 mph - N/A Rain Heavy Rain
12:55 AM 64.9 °F 61.9 °F 90% 29.79 in 10.0 mi SSE 4.6 mph - N/A   Overcast
1:15 AM 64.8 °F 61.9 °F 90% 29.79 in 10.0 mi South 5.8 mph - N/A   Scattered Clouds
1:36 AM 63.9 °F 60.8 °F 90% 29.78 in 10.0 mi South 5.8 mph - N/A   Clear
1:55 AM 63.9 °F 60.4 °F 89% 29.78 in 10.0 mi SW 5.8 mph - N/A   Scattered Clouds
1:56 AM 63.9 °F 60.4 °F 89% 29.78 in 10.0 mi SW 5.8 mph - N/A   Scattered Clouds
2:16 AM 63.5 °F 60.3 °F 89% 29.78 in 10.0 mi SW 4.6 mph - N/A   Mostly Cloudy
2:35 AM 63.9 °F 60.8 °F 90% 29.80 in 10.0 mi WSW 6.9 mph - N/A   Mostly Cloudy
2:36 AM 63.9 °F 60.8 °F 90% 29.80 in 10.0 mi WSW 6.9 mph - N/A   Scattered Clouds
2:55 AM 64.6 °F 61.2 °F 89% 29.79 in 10.0 mi SW 6.9 mph - N/A   Clear
3:15 AM 65.3 °F 60.8 °F 85% 29.79 in 10.0 mi SW 8.1 mph - N/A   Clear
3:35 AM 65.7 °F 61.0 °F 85% 29.74 in 10.0 mi South 15.0 mph - N/A Rain Light Rain
3:55 AM 65.8 °F 61.0 °F 84% 29.73 in 10.0 mi SW 9.2 mph 17.3 mph N/A Rain Light Rain
4:15 AM 64.9 °F 60.3 °F 85% 29.72 in 10.0 mi SSW 5.8 mph - N/A   Scattered Clouds
4:36 AM 64.4 °F 60.3 °F 86% 29.73 in 10.0 mi SW 8.1 mph - N/A   Scattered Clouds
4:55 AM 64.0 °F 60.1 °F 87% 29.74 in 10.0 mi SW 8.1 mph - N/A   Scattered Clouds
4:56 AM 64.0 °F 60.1 °F 87% 29.74 in 10.0 mi SW 6.9 mph - N/A   Scattered Clouds
5:15 AM 62.8 °F 59.5 °F 89% 29.76 in 10.0 mi NW 6.9 mph - N/A   Scattered Clouds
5:35 AM 62.2 °F 59.5 °F 91% 29.77 in 7.0 mi West 4.6 mph - N/A   Scattered Clouds
5:36 AM 62.2 °F 59.5 °F 91% 29.78 in 7.0 mi West 4.6 mph - N/A   Scattered Clouds
5:55 AM 61.7 °F 59.2 °F 91% 29.78 in 7.0 mi WNW 3.5 mph - N/A   Mostly Cloudy
5:57 AM 61.7 °F 59.0 °F 91% 29.79 in 7.0 mi Calm Calm - N/A   Mostly Cloudy
6:15 AM 62.2 °F 60.1 °F 93% 29.82 in 7.0 mi NNW 11.5 mph 19.6 mph N/A   Overcast
6:16 AM 62.2 °F 60.1 °F 93% 29.82 in 7.0 mi NNW 10.4 mph 19.6 mph N/A   Overcast
6:35 AM 63.0 °F 60.4 °F 91% 29.82 in 10.0 mi North 5.8 mph - N/A   Overcast
6:36 AM 63.0 °F 60.4 °F 91% 29.82 in 10.0 mi North 5.8 mph - N/A   Overcast
6:55 AM 62.8 °F 59.9 °F 90% 29.80 in 10.0 mi Calm Calm - N/A   Scattered Clouds
7:15 AM 62.4 °F 59.7 °F 91% 29.80 in 7.0 mi Calm Calm - N/A   Clear
7:35 AM 63.1 °F 60.6 °F 91% 29.79 in 7.0 mi South 3.5 mph - N/A   Clear
7:36 AM 63.1 °F 60.8 °F 92% 29.80 in 7.0 mi South 3.5 mph - N/A   Clear
7:55 AM 63.5 °F 60.8 °F 91% 29.78 in 7.0 mi SSE 4.6 mph - N/A   Scattered Clouds
7:56 AM 63.5 °F 60.8 °F 91% 29.78 in 7.0 mi SSE 5.8 mph - N/A   Scattered Clouds
8:15 AM 64.0 °F 61.2 °F 90% 29.78 in 7.0 mi Calm Calm - N/A   Mostly Cloudy
8:35 AM 64.4 °F 61.0 °F 89% 29.79 in 10.0 mi Calm Calm - N/A   Overcast
8:36 AM 64.4 °F 61.0 °F 89% 29.79 in 10.0 mi Calm Calm - N/A   Overcast
8:55 AM 63.7 °F 60.8 °F 90% 29.79 in 5.0 mi SSE 3.5 mph - N/A Rain Light Rain
8:57 AM 63.7 °F 60.8 °F 90% 29.81 in 7.0 mi SW 5.8 mph - N/A Rain Light Rain
9:15 AM 63.7 °F 60.6 °F 90% 29.79 in 2.5 mi SW 4.6 mph - N/A Rain Light Rain
9:16 AM 63.9 °F 60.8 °F 90% 29.79 in 2.5 mi SSW 6.9 mph - N/A Rain Light Rain
9:35 AM 64.0 °F 61.3 °F 91% 29.78 in 7.0 mi East 3.5 mph - N/A   Mostly Cloudy
9:37 AM 64.2 °F 61.3 °F 90% 29.79 in 7.0 mi Calm Calm - N/A   Mostly Cloudy
9:56 AM 64.8 °F 62.1 °F 91% 29.81 in 7.0 mi NNW 6.9 mph - N/A   Scattered Clouds
10:15 AM 64.8 °F 62.1 °F 91% 29.83 in 5.0 mi NNW 10.4 mph - N/A   Overcast
10:16 AM 64.6 °F 61.9 °F 91% 29.83 in 5.0 mi NNW 10.4 mph - N/A   Overcast
10:36 AM 65.5 °F 62.8 °F 91% 29.83 in 7.0 mi North 6.9 mph - N/A   Overcast
10:55 AM 64.6 °F 61.9 °F 91% 29.81 in 7.0 mi NE 5.8 mph - N/A   Mostly Cloudy
10:56 AM 64.6 °F 61.9 °F 91% 29.81 in 7.0 mi NE 5.8 mph - N/A   Mostly Cloudy
11:16 AM 64.4 °F 61.7 °F 91% 29.79 in 5.0 mi East 8.1 mph - N/A   Mostly Cloudy
11:35 AM 64.0 °F 61.0 °F 90% 29.78 in 7.0 mi East 6.9 mph - N/A   Overcast
11:55 AM 64.8 °F 61.7 °F 90% 29.78 in 7.0 mi ESE 4.6 mph - N/A   Overcast
11:56 AM 64.9 °F 61.9 °F 90% 29.78 in 10.0 mi ESE 3.5 mph - N/A   Overcast
12:16 PM 67.6 °F 63.1 °F 85% 29.76 in 10.0 mi SE 5.8 mph - N/A   Mostly Cloudy
12:35 PM 67.5 °F 63.5 °F 87% 29.78 in 7.0 mi SSW 11.5 mph - N/A   Mostly Cloudy
12:36 PM 67.5 °F 63.5 °F 87% 29.79 in 7.0 mi SSW 11.5 mph - N/A   Mostly Cloudy
12:55 PM 67.1 °F 63.1 °F 87% 29.78 in 3.0 mi SW 4.6 mph 16.1 mph N/A Rain Light Rain
12:57 PM 67.1 °F 63.3 °F 88% 29.78 in 4.0 mi SW 5.8 mph 16.1 mph N/A Rain Light Rain
1:15 PM 67.3 °F 63.5 °F 88% 29.82 in 7.0 mi West 9.2 mph - N/A Rain Light Rain
1:16 PM 67.1 °F 63.5 °F 88% 29.82 in 7.0 mi West 9.2 mph - N/A Rain Rain
1:35 PM 66.0 °F 62.4 °F 88% 29.85 in 1.5 mi West 32.2 mph 39.1 mph N/A Rain Heavy Rain
1:55 PM 62.6 °F 59.9 °F 91% 29.84 in 3.0 mi West 15.0 mph 25.3 mph N/A Rain Heavy Rain
2:15 PM 62.4 °F 59.4 °F 90% 29.83 in 5.0 mi West 10.4 mph - N/A Rain Heavy Rain
2:16 PM 62.2 °F 59.4 °F 90% 29.83 in 5.0 mi West 9.2 mph - N/A Rain Heavy Rain
2:35 PM 61.7 °F 59.0 °F 91% 29.82 in 5.0 mi Calm Calm - N/A Rain Rain
2:37 PM 61.7 °F 59.0 °F 91% 29.81 in 5.0 mi Calm Calm - N/A Rain Rain
2:55 PM 61.7 °F 59.0 °F 91% 29.74 in 5.0 mi SSE 5.8 mph - N/A Rain Light Rain
3:15 PM 61.9 °F 59.4 °F 91% 29.75 in 7.0 mi NNE 5.8 mph - N/A Rain Light Rain
3:16 PM 61.9 °F 59.4 °F 91% 29.75 in 7.0 mi NNE 5.8 mph - N/A Rain Light Rain
3:35 PM 61.7 °F 59.2 °F 91% 29.72 in 10.0 mi South 8.1 mph - N/A Rain Light Rain
3:36 PM 61.7 °F 59.4 °F 92% 29.72 in 10.0 mi South 9.2 mph - N/A Rain Light Rain
3:55 PM 64.4 °F 61.7 °F 91% 29.74 in 10.0 mi SSW 5.8 mph - N/A   Scattered Clouds
3:56 PM 64.6 °F 61.7 °F 90% 29.74 in 10.0 mi South 5.8 mph - N/A   Scattered Clouds
4:15 PM 64.6 °F 60.6 °F 87% 29.74 in 10.0 mi WSW 4.6 mph - N/A   Scattered Clouds
4:35 PM 65.3 °F 61.2 °F 86% 29.75 in 10.0 mi Calm Calm - N/A   Mostly Cloudy
4:36 PM 65.3 °F 61.0 °F 86% 29.75 in 10.0 mi Calm Calm - N/A   Mostly Cloudy
4:55 PM 65.1 °F 60.8 °F 86% 29.74 in 10.0 mi Calm Calm - N/A   Scattered Clouds
5:15 PM 66.4 °F 61.9 °F 85% 29.75 in 10.0 mi NW 5.8 mph - N/A   Scattered Clouds
5:16 PM 66.4 °F 61.9 °F 85% 29.75 in 10.0 mi NW 6.9 mph - N/A   Mostly Cloudy
5:35 PM 66.9 °F 61.9 °F 84% 29.75 in 10.0 mi WNW 6.9 mph - N/A   Mostly Cloudy
5:36 PM 66.9 °F 61.9 °F 84% 29.75 in 10.0 mi NW 6.9 mph - N/A   Mostly Cloudy
5:56 PM 66.9 °F 62.1 °F 84% 29.74 in 10.0 mi WNW 4.6 mph - N/A   Mostly Cloudy
6:15 PM 68.5 °F 61.3 °F 78% 29.74 in 10.0 mi WNW 8.1 mph - N/A   Scattered Clouds
6:16 PM 68.7 °F 61.3 °F 77% 29.74 in 10.0 mi WNW 6.9 mph - N/A   Scattered Clouds
6:35 PM 68.7 °F 60.6 °F 75% 29.74 in 10.0 mi Calm Calm - N/A   Clear
6:55 PM 68.0 °F 60.4 °F 77% 29.73 in 10.0 mi Calm Calm - N/A   Mostly Cloudy
6:56 PM 68.0 °F 60.6 °F 77% 29.73 in 10.0 mi Calm Calm - N/A   Mostly Cloudy
7:15 PM 67.8 °F 61.2 °F 79% 29.74 in 10.0 mi Calm Calm - N/A   Mostly Cloudy
7:16 PM 68.0 °F 61.2 °F 79% 29.73 in 10.0 mi Calm Calm - N/A   Mostly Cloudy
7:35 PM 67.3 °F 61.3 °F 81% 29.74 in 10.0 mi Calm Calm - N/A   Scattered Clouds
7:55 PM 67.1 °F 61.3 °F 82% 29.74 in 10.0 mi Calm Calm - N/A   Clear
7:57 PM 67.1 °F 61.5 °F 82% 29.74 in 10.0 mi North 3.5 mph - N/A   Clear
8:15 PM 66.2 °F 61.9 °F 86% 29.73 in 10.0 mi Calm Calm - N/A   Scattered Clouds
8:35 PM 65.5 °F 61.9 °F 88% 29.76 in 10.0 mi SSW 3.5 mph - N/A   Mostly Cloudy
8:37 PM 65.3 °F 61.9 °F 89% 29.76 in 10.0 mi SSW 3.5 mph - N/A   Mostly Cloudy
8:56 PM 65.3 °F 61.9 °F 89% 29.78 in 7.0 mi SW 5.8 mph - N/A Rain Rain
9:15 PM 64.6 °F 61.0 °F 88% 29.77 in 7.0 mi Calm Calm - N/A Rain Rain
9:16 PM 64.4 °F 61.0 °F 89% 29.77 in 7.0 mi Calm Calm - N/A Rain Rain
9:35 PM 63.5 °F 60.8 °F 91% 29.77 in 7.0 mi Calm Calm - N/A Rain Rain
9:36 PM 63.5 °F 60.8 °F 91% 29.77 in 7.0 mi SW 3.5 mph - N/A Rain Rain
9:55 PM 63.1 °F 60.8 °F 92% 29.77 in 7.0 mi SSW 3.5 mph - N/A Rain Rain
9:56 PM 63.1 °F 60.8 °F 92% 29.77 in 7.0 mi SSW 3.5 mph - N/A Rain Rain
10:15 PM 63.1 °F 60.8 °F 92% 29.75 in 7.0 mi Calm Calm - N/A Rain Light Rain
10:16 PM 63.0 °F 60.6 °F 92% 29.75 in 7.0 mi Calm Calm - N/A Rain Light Rain
10:35 PM 62.6 °F 60.4 °F 93% 29.76 in 7.0 mi Calm Calm - N/A Rain Light Rain
10:37 PM 62.6 °F 60.3 °F 92% 29.76 in 5.0 mi Calm Calm - N/A Rain Light Rain
10:55 PM 61.9 °F 59.9 °F 93% 29.77 in 0.2 mi Calm Calm - N/A Fog Fog
10:56 PM 61.9 °F 59.9 °F 93% 29.77 in 0.2 mi Calm Calm - N/A Fog Fog
11:15 PM 61.5 °F 59.7 °F 94% 29.77 in 1.0 mi Calm Calm - N/A   Overcast
11:16 PM 61.7 °F 59.9 °F 94% 29.77 in 1.0 mi Calm Calm - N/A   Overcast
11:36 PM 61.0 °F 59.2 °F 94% 29.76 in 1.2 mi Calm Calm - N/A   Overcast
11:55 PM 60.8 °F 59.0 °F 94% 29.74 in 0.8 mi Calm Calm - N/A   Overcast